Wind_Speed
41 40 42 42 43 43 42 41 39 40 39 38 38 37 39 40 40 38 36 35 36 37 36 34 32 30 30 29 28 26 24 22 22 22 20 18 16 13 12 13 16 17 15 15 16 14 13 12 10 8 8 8 7 5 5 5 6 5 5 5 4 5 8 12 15 14 13 11 10 8 8 8 8 7 6 4 3 5 5 3 2 1 2 4 6
40 40 41 41 43 44 43 42 42 43 42 40 40 38 39 40 40 39 37 37 37 39 38 36 35 33 32 30 29 28 26 23 23 23 21 19 17 15 13 13 15 16 15 15 15 15 13 13 11 9 8 8 7 7 7 7 6 6 5 5 5 7 10 12 14 13 12 11 10 11 11 11 10 8 7 7 5 6 5 4 4 2 1 1 3
40 42 42 42 44 44 43 43 44 44 43 43 41 38 38 39 40 40 38 37 37 39 40 38 36 34 32 30 28 28 27 24 23 23 22 21 19 17 15 13 14 15 15 15 15 15 14 13 12 10 9 8 8 7 7 8 7 6 6 6 6 9 12 13 12 12 11 10 10 11 12 12 12 11 10 9 8 9 7 6 7 5 3 1 2
42 44 43 42 43 45 45 45 45 45 45 45 44 40 39 40 40 41 39 37 37 39 40 39 36 34 32 30 28 27 26 24 23 23 23 23 21 19 17 15 14 15 15 15 15 15 15 14 12 11 10 9 8 7 8 8 7 7 6 7 8 10 12 13 13 12 12 12 12 11 11 12 13 14 14 12 10 12 11 9 9 8 6 4 3
46 46 46 44 44 46 47 47 46 46 47 47 46 43 41 41 41 41 40 38 37 38 40 39 37 34 32 30 28 27 26 25 25 26 26 25 24 22 21 18 16 15 15 16 15 15 15 14 13 12 11 10 9 8 9 8 8 8 8 8 9 10 12 14 14 14 13 13 12 11 10 10 13 14 14 13 12 13 13 12 11 11 9 6 3
48 50 49 47 47 47 48 49 48 49 50 49 47 45 42 42 42 41 41 39 37 37 40 40 39 37 35 34 32 31 30 29 29 28 28 27 25 24 22 20 18 16 16 16 16 16 16 15 14 13 12 12 10 10 10 10 9 9 9 9 10 10 12 14 14 14 14 13 12 10 7 8 11 13 14 13 11 13 14 13 13 12 11 7 4
48 49 49 48 47 48 49 50 51 51 52 51 48 46 44 43 42 42 42 41 39 38 39 42 41 39 38 37 35 34 33 32 30 29 29 27 25 23 22 21 20 18 17 17 17 17 16 16 15 13 13 13 11 11 11 10 9 9 9 10 10 11 12 14 15 15 14 14 13 11 9 9 10 12 15 14 10 13 14 14 14 13 11 8 6
48 48 49 48 48 50 52 52 52 52 52 51 50 48 46 44 43 44 43 42 41 39 40 42 42 40 39 38 37 35 33 31 30 29 29 28 26 24 22 21 20 19 17 17 18 18 17 17 16 15 14 14 13 12 11 10 10 10 10 10 10 11 12 13 14 14 13 12 13 13 11 11 9 10 15 14 11 13 15 15 14 13 12 9 7
51 51 52 51 51 52 53 53 53 52 52 51 51 49 47 45 44 45 45 44 43 42 41 42 42 41 40 39 38 36 32 30 29 29 29 30 29 27 24 23 22 20 19 17 18 19 19 18 17 17 16 15 14 13 12 11 11 11 11 11 10 10 12 12 13 13 12 10 11 14 13 11 9 10 13 13 11 13 17 19 17 14 13 11 8
51 53 54 55 54 53 53 52 52 52 52 51 50 50 48 47 46 46 46 45 45 44 43 42 41 41 41 40 39 37 34 31 30 29 29 30 31 29 27 26 24 23 21 19 18 19 20 19 18 18 17 16 15 14 13 13 12 12 11 11 10 10 12 13 13 12 12 10 11 15 16 13 12 12 13 12 11 12 15 17 18 16 14 12 10
50 52 54 55 54 52 51 51 51 51 51 51 51 50 50 49 48 48 47 46 45 46 45 43 42 41 41 40 39 38 35 33 32 31 30 29 31 31 29 28 26 25 23 20 19 19 20 20 19 18 17 16 16 15 14 13 12 12 12 11 11 11 11 12 13 13 13 12 12 15 19 18 15 15 14 12 12 14 14 15 17 16 14 13 11
50 50 51 52 50 48 50 51 51 50 50 51 51 51 51 51 50 49 47 46 46 46 47 46 44 42 41 41 40 39 36 35 34 33 32 31 30 30 29 29 28 27 25 22 20 19 19 20 19 19 19 17 17 16 15 14 13 13 12 12 11 11 11 12 13 13 13 13 11 13 19 21 18 15 15 14 13 14 14 13 13 13 14 14 13
49 49 50 50 50 49 50 52 52 51 51 52 52 52 52 51 50 50 48 47 46 47 47 46 45 43 41 41 41 40 38 36 35 34 33 32 30 29 28 28 28 27 26 24 21 20 20 20 20 20 20 18 17 17 16 15 15 14 13 12 12 12 12 12 12 12 13 13 11 11 16 22 21 17 15 16 15 15 14 12 11 10 11 13 14
47 48 49 51 53 52 51 53 53 53 53 53 53 53 53 52 51 50 49 48 47 47 47 47 46 44 42 41 41 41 40 38 36 35 34 33 31 29 28 27 27 26 24 23 22 21 20 20 20 20 20 19 17 17 16 16 16 15 13 12 12 12 12 12 12 12 13 13 12 12 13 18 21 19 18 17 16 17 16 14 13 12 10 10 14
47 48 50 53 55 55 53 54 55 55 54 54 54 54 54 53 52 51 50 49 48 48 48 48 47 46 44 42 41 41 40 39 38 37 35 34 33 31 29 28 27 25 23 22 22 21 21 19 19 19 20 19 18 17 17 17 17 17 15 14 13 12 13 13 12 12 12 12 12 13 13 14 18 19 20 19 17 17 18 16 15 15 13 11 14
48 48 50 52 54 55 54 55 56 56 56 54 55 55 55 55 53 52 51 50 50 49 49 49 48 47 46 44 43 42 41 40 39 38 37 36 34 32 30 29 28 26 23 22 21 21 20 19 18 18 19 19 19 19 18 17 18 18 17 16 15 14 14 14 13 13 12 11 11 12 14 13 15 18 19 20 19 17 18 17 16 16 16 15 15
49 50 52 53 54 55 55 56 56 56 56 56 56 56 56 55 55 53 52 51 51 51 50 50 49 49 48 46 45 43 42 40 39 38 38 37 35 33 31 30 29 27 25 24 22 21 21 20 18 17 18 19 20 20 20 19 19 19 18 17 16 16 15 14 14 13 12 11 10 11 13 14 15 17 19 20 20 18 17 17 16 16 16 18 19
51 52 53 54 55 56 56 56 57 57 57 58 57 57 56 55 54 54 53 53 52 52 51 51 50 50 49 48 46 44 42 40 38 38 37 36 36 34 33 31 30 28 27 26 24 23 23 22 20 18 18 18 20 21 21 20 20 20 20 19 17 17 16 15 15 14 13 13 12 11 13 14 17 18 18 20 21 19 17 17 17 17 17 19 21
50 50 51 52 54 56 57 57 57 57 57 57 57 56 55 55 54 53 52 51 51 51 51 51 50 50 50 49 47 45 43 40 39 38 37 37 37 35 34 33 31 30 29 27 26 25 25 24 22 21 19 19 19 21 22 22 22 22 21 21 19 18 18 17 16 15 14 14 14 12 13 14 18 19 19 20 21 19 18 18 19 20 20 20 21
47 48 50 52 54 57 57 57 57 57 57 56 54 54 54 54 53 52 51 50 50 50 50 50 50 50 50 49 48 46 44 42 40 39 39 38 38 37 36 34 33 32 31 29 27 26 26 25 24 23 22 21 20 20 21 22 23 23 23 22 21 21 20 19 18 18 17 17 16 15 15 14 17 20 21 21 21 20 19 19 20 21 22 22 20
48 49 50 52 54 56 57 56 56 56 55 54 53 53 53 53 53 52 51 51 50 50 49 49 49 50 50 50 49 47 45 44 43 42 41 40 39 38 37 35 34 33 32 31 29 27 26 26 25 24 23 23 23 22 21 22 23 23 23 23 23 23 23 22 21 20 20 20 19 18 17 16 17 21 23 23 22 21 21 21 21 22 22 23 22
49 49 50 52 53 54 55 54 53 53 53 53 53 53 53 53 53 52 51 51 51 50 49 48 47 48 50 50 50 48 46 45 45 44 43 42 41 39 38 37 36 34 33 32 31 29 28 27 26 26 25 25 24 24 24 24 24 24 24 24 24 25 25 24 23 23 23 22 22 21 19 18 18 20 23 26 25 23 23 23 23 23 23 23 23
51 50 51 52 53 54 53 53 53 52 52 52 52 53 52 53 52 52 51 51 50 49 48 47 46 46 48 49 49 49 47 46 46 46 45 44 43 41 39 38 37 35 34 33 32 31 29 29 28 27 27 27 26 26 26 26 25 25 25 25 25 25 25 25 24 24 24 24 24 23 22 20 20 21 23 26 28 27 26 26 25 25 25 24 25
51 51 51 51 51 52 52 53 52 51 51 52 52 53 52 52 52 51 51 51 50 49 48 47 46 45 45 47 48 48 48 47 47 46 46 44 43 42 41 40 38 37 36 34 33 33 31 31 30 30 29 29 29 28 28 28 27 27 26 26 26 26 26 25 25 25 25 25 26 25 24 22 22 23 23 24 27 29 29 29 29 28 28 27 27
49 49 48 48 48 49 51 52 52 52 51 53 53 53 51 51 50 50 50 50 49 49 48 47 46 45 45 46 47 47 47 48 47 46 46 45 44 43 43 41 40 39 38 36 35 35 34 33 32 32 31 31 31 30 29 29 29 28 28 27 28 28 28 27 27 26 26 26 27 27 26 24 24 25 25 25 26 29 30 32 32 32 31 30 30
48 47 45 46 47 49 51 52 53 52 52 52 53 52 51 50 49 49 49 49 49 48 48 47 46 46 46 46 46 45 45 46 46 46 46 45 45 44 43 42 41 40 39 38 38 36 35 35 34 33 33 33 32 31 31 31 30 30 30 29 29 30 30 29 29 28 28 28 28 28 28 27 27 27 26 26 26 27 30 32 34 34 34 34 34
47 47 46 47 47 49 51 52 53 53 52 52 52 52 51 50 49 49 49 49 49 48 48 47 47 47 47 48 47 44 43 43 44 45 46 46 46 45 44 43 41 41 40 40 39 38 37 36 35 35 34 34 34 33 33 32 32 32 32 31 31 31 32 32 31 31 30 30 30 29 29 29 29 29 28 27 27 27 28 30 32 34 35 36 37
45 46 47 48 48 49 50 51 51 51 50 50 50 50 50 50 49 49 49 49 49 48 48 48 47 47 48 48 47 44 41 40 41 43 45 46 47 46 45 44 42 42 41 41 40 40 39 38 37 36 36 35 35 36 35 34 34 34 34 34 34 34 34 33 33 33 33 33 33 32 31 31 31 30 29 29 28 28 28 29 29 30 33 36 38
44 46 48 50 51 50 50 49 49 49 48 47 48 48 48 48 48 48 48 48 48 48 48 48 47 47 47 48 47 45 42 41 41 43 45 47 47 47 46 45 44 43 42 41 41 40 40 39 39 38 38 37 38 38 37 36 35 35 35 35 35 36 36 36 35 35 35 35 35 34 34 33 33 33 32 31 30 29 29 30 29 29 31 33 35
44 47 50 52 51 50 49 49 48 48 48 47 47 47 48 48 48 48 47 47 47 47 47 48 47 47 46 45 46 45 43 42 42 43 44 46 47 47 47 47 46 45 43 42 42 41 41 41 40 40 40 40 40 39 38 37 36 36 36 36 36 37 37 38 38 37 36 36 36 36 36 35 34 34 34 34 33 32 31 31 31 31 31 32 33
44 47 48 48 48 47 47 48 48 49 48 48 48 47 48 48 48 48 46 45 45 46 46 47 47 46 44 43 43 43 43 43 43 44 44 45 46 47 48 48 47 46 45 44 43 43 42 42 41 41 41 41 41 40 39 38 37 37 37 38 38 38 38 39 39 39 38 37 36 36 36 36 36 35 35 35 35 35 34 34 33 33 33 33 34
44 44 43 43 45 45 46 47 49 49 48 48 48 48 48 48 48 47 45 43 42 42 44 45 45 44 43 42 41 40 41 42 43 44 45 45 46 47 48 48 48 47 46 45 45 44 44 43 42 43 42 42 42 41 40 39 39 38 39 39 39 39 39 39 40 40 40 39 38 38 37 37 37 36 35 35 35 36 36 36 36 36 36 36 36
43 42 42 44 44 45 47 47 47 47 47 46 46 46 46 45 45 45 44 43 42 41 42 43 43 43 42 40 39 38 38 39 40 42 44 45 46 47 48 48 48 48 47 46 46 45 45 44 44 44 44 43 42 41 40 40 39 39 38 39 39 40 40 40 40 40 40 40 40 39 39 38 37 36 36 36 36 36 36 37 38 39 39 40 39
36 38 40 42 42 42 44 44 43 43 43 43 43 42 40 39 40 41 42 43 43 42 43 43 43 42 40 39 38 37 37 37 37 38 41 43 45 46 47 48 48 48 48 47 47 46 46 45 45 45 44 43 43 41 40 40 39 38 37 37 38 39 40 40 40 40 40 40 40 40 40 39 38 38 38 37 37 37 37 37 38 40 41 42 42
28 31 32 34 35 36 37 38 39 39 39 40 40 39 37 36 36 38 40 41 42 43 44 44 43 41 40 39 38 37 37 36 36 37 39 41 43 44 46 47 47 48 48 48 47 47 46 46 45 45 44 44 43 41 40 39 38 37 36 36 36 38 39 40 40 40 40 40 40 41 41 41 40 41 40 40 39 38 38 39 40 41 42 42 43
23 24 23 23 24 26 28 31 33 33 34 35 36 36 35 34 34 36 39 40 42 43 44 44 43 42 40 39 38 38 38 37 36 38 39 40 41 41 43 44 46 47 48 48 47 47 47 47 46 45 46 45 43 41 40 39 37 36 35 36 36 37 38 39 39 40 40 41 41 41 42 42 42 42 41 41 41 40 41 42 43 43 44 44 46
28 25 23 20 20 19 19 22 24 25 26 28 31 33 34 33 32 34 37 39 41 42 43 43 43 42 41 40 39 38 38 38 38 39 40 40 40 39 40 41 43 45 46 48 48 48 47 47 46 46 47 46 44 42 41 40 38 37 36 36 37 37 38 39 39 39 40 40 40 40 41 41 42 42 41 41 41 42 43 45 46 46 47 49 50
31 30 28 26 24 22 20 19 20 21 20 21 24 27 30 31 31 32 35 37 40 42 42 42 43 42 41 40 40 40 39 39 39 40 40 39 39 39 39 39 40 41 42 44 45 47 47 47 47 47 47 47 46 44 43 41 40 38 37 37 37 38 39 40 40 40 40 41 41 41 40 41 41 41 40 40 41 42 44 46 47 48 49 52 54
29 27 26 25 23 21 20 20 20 19 17 17 19 22 25 26 27 28 32 35 38 39 40 40 40 41 40 40 41 41 41 40 40 39 39 39 38 37 37 38 39 39 39 39 41 43 45 46 47 47 47 47 46 45 44 43 41 40 39 38 38 39 40 41 40 41 41 41 42 42 41 41 42 41 40 40 41 42 44 46 46 48 51 55 54
25 23 21 20 19 18 17 16 15 14 14 15 16 18 20 22 23 25 29 31 34 35 35 36 37 38 40 41 41 42 42 41 40 39 38 38 38 38 38 38 39 39 38 38 39 41 42 43 44 45 46 46 46 45 44 43 41 40 39 38 38 40 41 41 40 40 41 41 40 40 40 40 40 39 39 40 41 42 44 45 46 48 52 53 51
22 19 17 16 14 13 11 11 9 8 8 11 13 14 15 17 19 21 23 26 29 31 32 33 34 35 37 38 39 41 42 42 40 38 37 38 38 39 39 39 39 39 39 39 39 39 41 41 42 44 45 45 45 44 43 43 41 41 40 39 39 40 40 40 40 40 40 40 39 39 39 38 38 37 38 39 40 42 43 44 46 49 50 49 47
19 16 15 14 11 8 6 5 4 2 3 6 9 11 11 12 14 16 18 20 23 27 30 33 34 34 35 35 35 36 37 39 40 39 39 39 39 40 41 40 40 39 39 39 38 38 39 40 41 42 43 43 43 42 42 41 40 40 39 39 39 40 39 38 39 40 40 39 39 39 39 38 37 37 37 38 39 41 43 46 47 48 48 47 47
18 16 13 11 8 5 3 4 3 2 1 4 7 8 9 11 12 14 16 17 19 22 25 29 32 33 33 34 34 33 33 34 36 37 39 40 39 40 41 42 41 41 40 39 39 38 39 39 39 40 40 40 40 40 39 38 38 36 36 35 36 36 35 34 37 38 38 37 36 36 36 36 36 36 36 36 37 38 41 43 44 44 45 45 45
18 16 12 9 7 5 5 4 4 4 3 2 5 7 9 11 13 14 16 17 18 19 20 23 27 30 31 31 31 31 31 31 31 33 35 38 39 40 41 41 41 42 41 40 39 38 38 38 38 38 37 37 37 37 37 36 35 33 32 32 31 31 30 31 32 33 32 31 31 32 32 33 32 32 31 32 33 34 36 37 38 40 41 42 43
17 15 11 8 7 5 5 5 5 4 4 3 3 5 8 10 12 14 16 17 18 19 19 19 21 25 28 29 30 30 30 29 30 30 32 35 38 38 39 40 41 41 41 40 39 37 36 36 36 35 34 34 34 34 35 35 33 31 30 29 28 27 26 27 28 28 28 28 29 30 30 30 29 28 27 28 30 32 34 35 37 38 40 41 43
17 15 12 9 7 5 5 6 6 5 5 4 5 6 6 8 11 13 14 16 17 18 19 19 19 20 23 26 29 31 31 29 29 30 30 31 33 34 36 37 39 40 40 39 37 36 34 33 33 32 31 30 29 31 32 33 32 29 27 26 25 24 24 25 26 27 27 27 29 30 31 32 33 33 33 34 35 36 37 38 39 40 42 44 45
16 14 11 9 8 8 8 9 8 8 6 7 8 8 8 8 10 12 13 14 15 16 18 18 18 18 19 21 25 29 31 31 29 29 29 30 31 32 33 35 36 37 38 37 35 33 31 30 30 29 27 26 27 28 29 29 28 27 26 24 24 24 24 25 26 26 26 28 30 32 34 34 35 36 36 36 37 38 39 40 41 43 45 46 48
15 13 12 10 10 10 10 10 10 9 9 8 9 10 11 11 11 11 13 13 13 14 16 17 17 17 17 18 20 24 28 30 29 28 29 29 30 31 32 32 33 33 33 32 30 29 28 27 26 25 24 25 26 26 26 26 26 25 25 24 24 23 23 23 23 23 24 25 26 27 28 29 30 30 31 32 34 35 36 37 39 41 43 45 47
12 12 12 11 10 9 9 9 9 10 11 11 9 11 12 13 12 12 12 13 14 13 12 13 15 16 17 17 18 21 25 27 28 28 28 28 29 30 29 29 28 27 27 25 24 24 24 23 23 23 23 24 24 24 24 24 24 24 23 23 22 21 21 20 20 20 20 21 21 21 22 24 25 26 28 29 31 32 34 35 37 39 41 44 45
10 10 10 9 7 7 8 9 9 11 13 13 11 12 13 12 12 12 11 12 13 13 12 11 12 14 15 16 17 19 22 24 25 26 26 27 27 27 26 25 24 23 21 20 20 20 21 21 21 22 22 22 22 23 23 23 23 23 22 22 21 20 20 19 19 18 18 18 19 20 21 23 24 26 27 28 29 31 32 34 35 36 38 40 42
11 10 9 7 6 6 7 8 10 11 13 13 13 13 14 12 9 9 10 10 12 13 13 12 11 11 12 14 16 17 19 21 22 24 25 26 26 26 25 24 24 23 22 20 20 20 21 21 21 20 21 21 20 21 21 22 22 22 21 21 20 20 20 19 18 18 18 19 20 20 21 22 22 22 23 24 24 25 26 28 29 30 31 32 34
Wind_Direction
199 196 196 198 197 197 198 198 200 200 201 203 203 203 204 203 203 205 205 203 201 199 200 203 202 201 203 205 205 206 206 203 203 207 211 214 216 220 220 215 213 214 211 207 212 217 216 215 213 206 194 192 199 197 196 196 183 175 175 176 170 168 165 160 163 168 170 173 169 159 149 152 161 163 176 184 166 175 177 176 175 134 100 69 67
198 197 196 197 197 197 198 199 199 200 200 203 204 204 204 204 205 206 205 204 202 201 202 204 205 205 205 205 205 206 207 206 205 206 210 214 216 222 223 215 210 213 214 207 211 218 219 217 216 215 207 196 198 198 196 194 186 180 174 171 167 165 169 167 162 163 165 167 167 171 167 160 167 180 201 205 197 201 204 208 208 203 198 52 54
197 196 195 196 197 197 198 199 200 201 201 202 203 204 204 204 206 207 207 205 202 202 203 205 207 208 207 206 206 207 208 208 208 207 209 214 217 221 224 218 211 214 214 209 210 218 222 221 218 220 215 202 201 202 199 193 190 188 175 173 172 168 172 172 166 161 162 169 172 177 181 178 178 186 202 208 211 219 225 226 221 219 229 272 353
196 197 196 196 197 197 198 199 200 201 201 201 202 203 205 205 206 208 208 207 203 202 204 206 207 208 209 209 208 209 210 209 208 206 206 212 217 220 223 220 215 214 214 212 211 216 223 222 220 218 213 209 206 204 205 197 192 196 189 184 181 177 178 174 170 169 169 177 179 176 184 193 196 195 198 203 215 225 230 231 225 223 234 256 320
195 197 198 198 198 199 199 199 199 200 200 201 202 205 206 206 207 208 209 209 205 202 204 205 206 208 208 208 208 207 209 209 207 206 206 210 215 219 222 221 217 214 215 216 213 214 220 222 220 215 212 214 211 206 206 199 194 197 198 196 186 182 184 180 177 176 177 183 182 173 177 196 206 202 199 202 213 227 233 231 228 231 242 259 310
196 197 197 198 199 199 200 200 200 201 202 203 205 207 208 207 208 208 209 210 206 203 204 205 206 207 207 206 206 206 208 209 209 210 209 211 214 218 221 223 221 218 216 217 215 214 218 221 220 215 213 214 210 205 202 199 200 199 201 202 191 181 187 192 189 183 184 192 193 185 189 206 207 202 202 205 212 225 230 228 229 235 245 262 293
197 198 197 198 199 198 199 200 201 203 203 204 205 207 208 207 208 209 209 211 209 206 206 207 207 209 209 208 209 210 211 211 212 213 213 215 217 218 220 223 223 221 218 218 218 216 216 220 219 216 214 213 210 206 201 201 203 204 206 206 196 186 192 198 195 189 188 197 202 202 217 232 222 209 206 204 204 212 220 223 224 230 242 260 281
195 196 197 198 199 199 200 201 202 204 203 203 204 205 207 208 209 209 210 211 211 209 207 208 209 210 211 211 212 214 216 215 214 213 214 216 219 221 222 223 223 222 220 220 220 218 215 217 218 217 214 212 211 207 203 202 202 204 204 202 201 196 196 199 197 197 197 199 200 201 213 229 226 210 203 203 206 206 207 210 214 225 239 252 275
194 194 196 198 199 200 201 201 202 203 203 203 204 205 207 208 209 209 210 212 213 212 210 209 211 212 213 213 214 216 219 219 216 214 214 216 219 223 224 226 226 226 224 222 221 218 215 214 216 217 214 212 212 207 201 201 204 206 204 203 207 205 200 200 200 202 202 199 200 200 205 210 204 195 198 205 218 213 200 200 206 215 225 236 260
195 195 196 198 199 200 200 200 201 201 202 204 204 205 206 207 208 208 210 213 215 214 212 211 212 213 214 215 215 216 218 218 217 216 214 215 218 222 225 227 228 229 228 225 222 219 216 215 216 217 215 213 212 208 202 203 205 209 211 210 211 209 205 206 208 206 201 201 208 209 207 205 198 195 201 205 213 215 205 202 208 215 222 230 243
196 196 197 198 199 200 199 199 200 201 202 203 203 205 206 206 207 209 211 213 215 215 215 214 213 215 215 215 215 216 218 217 216 216 214 213 216 220 224 226 228 230 231 227 221 220 218 216 216 217 217 214 213 210 207 208 211 212 215 214 209 208 210 215 219 216 210 209 214 214 208 206 206 205 207 206 202 205 207 206 210 221 232 238 243
195 195 197 197 197 198 199 200 200 200 201 201 202 203 205 207 208 209 211 213 215 215 216 216 216 216 216 215 216 217 218 219 218 218 217 215 216 218 222 225 226 229 231 227 221 220 220 217 216 217 218 216 213 213 210 210 216 215 214 213 209 209 214 221 225 224 222 219 219 216 207 206 211 215 216 217 210 206 212 213 211 220 231 235 243
194 194 195 195 195 197 198 199 199 200 201 202 202 203 204 207 209 210 211 213 214 215 216 217 217 217 216 216 216 217 219 221 221 221 221 221 220 220 221 224 225 225 226 224 218 218 220 218 216 216 218 217 214 214 212 211 217 219 217 215 213 214 219 225 228 230 231 227 223 220 212 208 211 217 223 225 218 210 213 218 214 220 231 233 240
194 194 194 195 195 197 198 198 198 199 201 202 202 203 204 206 209 211 213 215 215 216 216 217 217 218 218 217 217 217 219 220 223 224 224 225 225 225 226 226 224 222 221 220 217 218 221 220 218 217 219 220 217 215 214 213 218 221 222 223 221 220 221 225 228 231 234 231 226 225 224 217 214 218 226 227 221 211 211 217 220 225 236 239 243
195 195 195 196 196 197 197 198 198 199 201 202 202 203 204 206 209 212 214 215 216 217 217 217 218 219 220 220 219 218 219 221 223 225 226 226 227 228 229 229 227 223 220 221 220 219 220 222 221 218 217 220 220 218 216 217 220 222 223 227 228 225 223 224 226 230 234 235 230 227 232 231 222 221 224 225 223 216 214 220 225 228 234 240 243
195 196 196 198 197 197 197 198 199 199 200 201 202 204 205 206 209 212 215 216 216 217 218 219 220 221 221 222 221 220 221 221 222 224 226 227 228 230 230 230 229 226 223 223 222 221 222 223 223 221 218 218 220 221 221 222 223 224 225 228 230 229 226 225 225 229 234 237 238 232 230 233 225 216 216 220 223 219 216 218 222 229 237 242 240
195 196 197 198 197 197 198 199 200 200 200 202 203 205 207 208 210 212 214 215 216 217 219 220 221 221 222 223 222 222 221 222 222 223 224 226 227 229 230 231 231 229 227 226 225 225 225 227 228 227 223 220 219 221 222 224 226 228 229 231 233 232 232 231 228 229 232 234 241 237 229 229 224 212 208 216 222 220 220 221 221 226 238 245 244
196 197 198 198 197 197 199 200 201 201 202 203 205 207 208 210 211 212 212 214 216 218 219 220 220 221 222 223 223 223 223 223 223 223 223 224 225 226 228 230 231 231 231 230 230 228 229 231 231 230 229 225 222 222 222 223 226 229 230 233 235 236 237 237 233 232 231 231 236 239 232 225 223 218 210 212 217 218 221 227 228 229 235 243 247
196 197 197 198 198 198 199 200 201 202 203 205 206 207 208 210 212 213 214 216 217 218 218 219 220 221 222 223 223 224 224 225 225 224 224 224 224 225 227 229 230 232 232 232 233 231 231 232 231 229 229 227 225 223 223 224 225 228 230 232 234 236 237 238 237 236 233 232 232 236 237 228 224 225 216 210 214 219 221 225 231 235 238 241 245
195 196 197 198 198 200 200 200 201 202 204 205 205 206 207 209 211 213 216 216 217 218 219 219 221 222 222 223 224 224 225 226 226 226 225 225 226 226 228 230 230 231 232 232 233 233 233 234 232 230 228 227 226 223 223 223 224 226 228 232 235 236 237 237 237 238 237 237 236 235 238 234 228 229 224 217 217 222 224 224 228 235 241 244 245
194 195 197 198 199 200 200 201 202 203 203 203 204 206 207 209 211 213 215 215 216 218 219 221 222 223 223 224 224 225 226 227 227 227 227 228 228 228 229 230 230 231 232 232 233 233 233 234 234 233 231 230 229 226 224 222 222 224 227 231 235 237 239 239 239 240 240 241 243 239 237 236 232 232 232 229 226 225 227 228 229 233 238 244 246
194 195 196 197 198 199 200 201 201 201 201 202 203 205 207 209 211 212 214 215 217 218 220 222 223 224 225 225 226 226 226 227 228 228 228 229 230 230 230 230 231 232 232 233 233 233 233 234 234 234 234 232 232 230 229 226 224 224 225 229 233 236 239 241 241 242 243 244 246 245 241 236 233 233 234 235 235 233 231 233 235 237 238 241 245
194 195 196 197 198 198 199 199 200 201 201 202 203 205 207 209 211 212 213 216 218 220 221 222 223 226 227 226 226 227 228 229 229 230 231 231 230 230 230 231 232 232 233 234 234 234 234 234 235 235 234 233 233 233 232 232 230 228 227 228 232 235 239 241 242 243 244 245 247 248 247 241 236 235 234 235 237 238 237 238 240 242 244 245 246
193 194 195 196 197 197 198 199 200 201 201 202 204 205 207 209 210 212 214 216 218 219 221 222 223 226 227 227 227 228 228 229 230 232 233 233 232 231 230 231 232 233 234 235 235 235 235 235 235 236 235 235 235 234 234 235 235 235 233 232 233 236 239 242 244 245 246 247 248 249 250 247 243 240 237 236 236 238 240 242 243 244 247 249 250
192 193 194 194 194 196 197 199 200 200 202 203 205 206 207 209 210 212 214 216 218 218 220 222 224 226 227 227 227 228 229 230 232 233 234 234 234 232 231 231 232 233 235 235 236 236 236 236 236 236 237 237 237 237 237 237 238 238 238 237 236 237 240 243 246 247 247 248 249 251 252 252 250 248 244 241 239 240 242 244 246 247 248 249 250
190 191 191 192 194 196 198 200 200 201 203 204 205 206 207 209 211 213 215 216 217 218 219 221 224 225 226 227 227 228 230 232 233 234 235 235 234 234 233 232 232 233 235 236 236 236 237 237 238 238 239 240 240 240 240 241 241 241 241 241 240 239 241 243 246 247 248 248 249 252 253 254 253 253 252 250 248 246 245 245 247 247 249 250 251
188 189 190 192 194 197 199 200 201 202 203 205 206 206 207 209 211 214 216 216 217 219 220 222 224 225 226 227 227 229 231 233 235 236 236 235 235 235 235 234 234 234 234 235 236 237 238 239 239 240 241 242 242 242 243 243 243 244 244 245 244 243 243 243 245 247 247 248 249 251 252 254 255 256 256 256 255 254 252 251 250 249 249 251 252
187 188 189 192 195 198 199 200 200 201 203 205 206 207 208 209 211 213 215 216 217 219 220 222 224 225 227 228 228 230 233 235 237 237 237 237 236 235 235 236 236 235 235 236 237 238 239 240 241 242 242 243 244 244 244 245 245 245 246 247 247 247 247 246 247 248 248 249 249 250 251 252 255 257 258 259 258 258 257 256 256 255 252 252 253
186 187 189 193 197 198 199 199 199 200 202 204 205 206 208 209 210 212 214 216 217 218 219 221 222 226 229 230 230 230 233 235 237 237 238 237 236 235 235 236 236 236 237 237 238 239 241 242 243 243 243 243 243 244 245 246 246 246 247 248 249 250 250 250 251 251 252 252 252 252 252 253 255 256 258 260 260 260 259 259 260 260 258 256 256
186 188 191 194 197 198 198 198 199 200 202 204 205 207 208 209 210 212 214 216 216 218 219 220 223 227 230 231 231 232 233 235 236 237 238 238 237 236 235 235 236 237 238 238 238 240 241 242 244 244 244 243 243 244 246 247 248 248 248 250 251 252 253 253 253 254 255 256 256 256 256 256 257 258 259 259 260 260 260 260 261 262 261 260 259
188 191 192 194 195 197 197 198 200 203 204 206 208 208 209 209 210 211 212 214 216 217 219 221 223 227 230 230 232 233 234 236 238 238 239 239 238 237 235 235 236 238 239 239 239 240 241 242 244 244 245 245 246 247 248 249 250 250 250 250 252 253 255 255 256 257 258 259 260 260 260 260 260 260 260 259 259 259 260 260 260 261 261 261 261
190 192 191 192 195 198 199 201 204 205 206 208 210 210 210 210 211 211 212 213 216 218 220 222 225 228 229 231 233 235 236 238 239 239 239 239 238 237 236 235 236 237 239 240 240 241 242 242 243 244 245 247 248 250 251 252 252 252 251 251 252 254 256 257 258 259 260 262 262 262 263 263 263 263 263 262 261 260 260 261 261 261 262 262 262
188 189 190 193 196 200 202 204 205 206 208 210 211 211 212 213 214 215 215 215 218 220 222 225 228 229 230 233 235 237 238 239 240 240 240 239 238 237 237 236 236 238 238 240 241 242 242 243 243 245 246 248 250 251 252 253 254 254 253 252 253 254 256 258 259 260 261 263 264 264 264 264 265 266 266 266 265 264 264 263 263 263 263 262 262
180 185 189 194 197 200 202 204 206 208 210 211 212 213 214 215 216 217 217 218 219 220 223 225 228 230 233 236 238 239 240 241 242 242 241 240 239 239 238 237 237 237 237 239 241 242 243 244 244 245 247 249 251 253 253 254 255 255 255 254 254 255 257 259 260 261 262 264 264 265 265 266 267 267 267 268 268 268 268 267 266 265 264 264 264
170 180 187 193 196 198 199 201 204 207 209 209 212 215 216 217 218 217 217 218 218 219 222 225 228 231 234 237 238 240 242 243 243 242 241 241 241 240 240 238 238 237 238 239 241 242 243 244 245 246 247 250 252 254 255 255 256 256 256 255 255 256 257 258 260 261 262 264 265 265 266 267 268 268 269 270 270 271 271 271 270 269 268 268 267
147 164 174 184 191 196 200 203 207 209 211 213 215 217 219 220 221 220 219 219 219 220 222 225 228 232 235 237 239 240 241 243 243 242 241 241 241 242 242 240 238 238 239 240 241 242 243 245 246 247 247 249 252 254 255 256 257 257 256 255 255 256 256 258 259 261 262 264 265 265 266 267 268 269 270 271 271 271 271 271 271 271 272 271 271
116 126 133 144 158 169 182 195 204 208 212 218 221 223 224 225 225 223 222 222 222 224 226 227 229 232 234 236 238 240 241 243 243 242 242 242 242 242 242 241 240 239 239 240 241 242 244 245 247 247 248 249 252 253 254 256 258 257 256 255 255 255 256 257 259 260 262 263 265 266 267 269 270 271 271 272 272 271 270 270 270 272 272 273 273
104 110 114 122 132 137 145 159 174 181 189 203 213 219 223 225 225 225 225 225 226 228 230 231 232 234 235 236 238 239 240 242 243 243 244 244 244 244 243 242 241 241 242 242 243 243 244 246 247 248 250 251 252 252 253 254 255 255 255 256 256 257 258 259 260 261 262 263 264 265 267 268 270 272 273 274 273 272 271 270 270 272 272 273 273
99 105 109 113 120 126 133 144 154 160 166 179 193 203 211 216 221 224 225 227 230 232 233 234 235 236 238 238 239 238 238 240 242 244 246 246 247 247 246 244 243 243 245 245 245 245 246 247 248 249 250 252 252 253 253 253 253 253 253 253 254 255 256 258 260 262 263 264 265 267 268 269 270 272 273 273 273 271 271 271 271 271 272 273 274
92 98 102 108 119 127 131 136 141 150 161 172 181 189 197 204 212 219 223 227 231 234 237 238 238 239 239 239 240 239 239 239 240 242 245 246 247 247 246 245 244 244 245 245 245 246 247 248 249 250 251 252 252 253 254 254 255 255 254 254 252 252 254 255 258 260 261 263 264 266 268 270 272 274 274 274 273 272 271 272 271 269 270 274 277
87 91 97 105 115 119 120 121 123 138 164 178 184 188 193 199 206 214 221 227 231 234 237 239 239 240 239 240 241 241 241 241 241 241 242 243 245 245 246 245 245 245 245 245 245 246 247 249 250 250 251 252 253 253 254 255 256 257 257 257 255 256 257 259 260 262 262 262 263 264 266 268 270 272 273 274 275 274 274 273 271 270 272 277 280
83 86 91 97 104 105 99 93 95 132 188 204 206 205 205 208 213 218 223 229 233 236 238 240 241 242 242 242 243 243 243 242 241 240 239 238 240 242 244 245 246 245 246 246 247 247 248 249 250 251 252 253 254 254 255 256 257 257 257 257 258 259 261 263 264 265 265 265 266 268 270 271 271 272 273 274 275 276 275 274 274 275 277 279 278
83 83 84 87 94 92 58 28 7 349 277 242 239 232 227 226 227 228 230 232 236 238 240 242 243 243 245 245 246 246 245 242 240 239 238 237 237 238 241 243 244 245 245 246 248 248 248 249 250 251 253 254 254 254 255 256 257 257 257 258 259 261 262 263 265 267 268 271 273 274 275 276 276 276 276 276 276 277 277 277 279 281 282 282 281
83 85 87 86 83 75 53 28 6 358 346 289 260 246 239 238 237 237 237 238 240 240 240 242 243 243 243 245 247 248 248 245 242 239 237 236 236 236 238 240 242 243 245 246 247 247 248 249 250 252 253 254 254 254 255 256 256 256 257 258 259 261 262 263 265 268 271 273 274 274 275 275 275 276 277 277 277 276 276 278 280 282 283 283 282
86 89 92 85 74 59 38 22 10 357 347 334 293 254 242 242 243 243 243 243 245 245 243 242 242 241 240 240 242 245 247 247 245 240 237 235 234 234 236 238 240 242 243 244 246 247 248 249 251 253 254 254 255 255 255 256 256 256 257 258 259 260 261 261 262 264 266 267 267 268 270 272 272 271 271 271 272 273 275 277 279 281 282 282 281
79 81 79 72 59 38 18 6 354 340 326 313 298 276 258 252 250 249 248 247 248 250 248 245 243 239 235 234 237 241 243 245 244 242 239 237 236 236 236 237 239 240 242 243 245 246 247 250 252 254 255 256 257 256 255 256 255 255 255 255 255 254 253 253 255 257 260 263 265 266 266 267 267 267 268 270 272 275 277 279 280 281 281 281 281
63 63 60 55 42 25 16 7 354 342 323 299 287 282 275 266 259 255 253 251 251 252 251 248 245 241 233 229 232 237 240 241 240 238 236 236 237 237 237 237 238 239 240 241 243 244 247 249 252 254 256 257 256 255 255 256 256 254 252 250 250 250 249 248 250 253 257 261 265 267 268 269 270 271 272 274 275 277 278 279 279 280 280 281 281
62 58 52 46 34 21 13 5 357 350 339 317 296 284 278 272 267 263 257 252 250 253 253 249 243 239 234 227 226 232 236 236 233 230 229 230 231 233 236 238 239 240 240 242 244 247 249 251 253 254 254 253 252 252 253 254 254 253 251 250 250 251 250 249 251 255 259 263 266 269 270 271 272 272 273 274 274 275 277 278 279 280 281 282 282
63 57 49 41 30 19 9 360 350 343 339 333 316 298 288 278 271 268 263 254 248 248 253 251 242 235 232 227 222 225 230 230 227 224 223 223 225 227 230 235 238 241 243 246 249 251 253 254 253 252 250 249 249 249 249 251 251 251 251 252 252 252 253 254 257 259 262 263 264 265 266 267 269 270 271 272 273 274 275 276 277 278 279 280 281
58 54 47 36 22 9 358 349 338 331 332 332 324 317 311 296 275 264 262 257 248 241 238 239 237 230 226 222 218 219 223 223 223 222 221 220 220 222 224 229 233 236 240 244 247 250 252 251 249 248 247 246 245 243 242 243 246 248 249 251 252 253 254 256 257 258 260 262 264 266 267 269 271 272 273 274 275 277 278 278 279 279 280 282 283
49 45 35 19 1 352 343 333 326 323 324 325 324 323 322 313 284 260 253 249 245 238 227 220 220 217 212 210 209 209 210 212 215 218 219 218 217 216 219 225 229 231 234 237 238 241 244 245 243 243 242 240 240 239 239 238 240 243 245 246 248 250 252 254 258 262 266 269 271 273 274 276 278 279 281 283 284 285 286 287 287 287 287 287 288
Height
1509 1512 1514 1516 1518 1520 1522 1525 1527 1530 1531 1533 1535 1537 1539 1541 1543 1544 1547 1550 1552 1555 1557 1559 1561 1563 1564 1566 1567 1568 1570 1572 1573 1574 1575 1576 1578 1579 1580 1581 1582 1582 1583 1584 1585 1585 1586 1587 1588 1588 1589 1589 1589 1590 1590 1590 1591 1591 1591 1591 1591 1591 1592 1592 1592 1593 1593 1594 1595 1595 1596 1596 1596 1597 1597 1598 1598 1598 1599 1599 1599 1599 1599 1599 1599
1508 1510 1512 1514 1516 1518 1520 1522 1525 1526 1528 1530 1532 1534 1537 1539 1541 1543 1545 1547 1550 1552 1554 1556 1558 1560 1561 1563 1565 1567 1568 1570 1571 1572 1574 1575 1576 1578 1579 1580 1581 1581 1582 1583 1584 1584 1585 1586 1587 1588 1588 1589 1589 1589 1590 1590 1590 1590 1591 1591 1591 1591 1591 1592 1592 1592 1593 1594 1595 1596 1596 1596 1597 1597 1597 1598 1598 1599 1599 1599 1599 1599 1599 1599 1599
1504 1507 1509 1511 1513 1515 1518 1519 1521 1523 1525 1528 1530 1532 1535 1537 1539 1541 1543 1545 1547 1550 1552 1554 1556 1558 1560 1562 1564 1566 1567 1569 1570 1572 1573 1574 1575 1576 1578 1579 1580 1580 1581 1582 1583 1583 1584 1585 1586 1587 1588 1588 1588 1589 1589 1589 1590 1590 1590 1590 1591 1591 1591 1592 1592 1593 1593 1594 1595 1595 1596 1597 1597 1597 1597 1598 1598 1599 1599 1599 1599 1599 1599 1599 1599
1499 1502 1505 1508 1510 1512 1514 1515 1518 1521 1523 1526 1528 1530 1532 1534 1536 1538 1540 1542 1545 1548 1550 1552 1555 1557 1559 1561 1563 1565 1566 1568 1570 1571 1572 1572 1573 1575 1576 1577 1578 1579 1580 1581 1582 1583 1583 1584 1586 1586 1587 1588 1588 1588 1589 1589 1589 1589 1590 1590 1590 1591 1591 1591 1592 1592 1593 1593 1594 1595 1596 1596 1597 1597 1597 1598 1598 1598 1599 1599 1599 1600 1600 1600 1600
1494 1497 1501 1504 1506 1508 1510 1512 1515 1517 1520 1522 1524 1526 1528 1530 1533 1535 1538 1540 1543 1546 1548 1551 1554 1556 1558 1560 1562 1564 1566 1567 1568 1569 1569 1570 1571 1573 1574 1576 1577 1578 1579 1580 1581 1582 1582 1583 1585 1586 1587 1587 1587 1588 1588 1588 1589 1589 1589 1590 1590 1590 1591 1591 1592 1592 1593 1593 1594 1594 1595 1596 1596 1596 1597 1598 1598 1598 1598 1599 1599 1600 1600 1600 1600
1489 1492 1495 1499 1501 1504 1507 1509 1511 1513 1515 1517 1520 1523 1525 1528 1530 1533 1536 1538 1541 1543 1546 1549 1551 1553 1555 1557 1558 1560 1562 1563 1563 1565 1566 1568 1569 1571 1573 1574 1575 1577 1578 1579 1580 1581 1582 1582 1584 1585 1586 1586 1587 1587 1588 1588 1588 1588 1589 1589 1590 1590 1591 1591 1591 1592 1592 1593 1594 1594 1595 1595 1595 1596 1597 1597 1598 1598 1598 1599 1599 1600 1600 1600 1600
1486 1489 1492 1495 1498 1500 1503 1505 1507 1509 1511 1514 1517 1520 1523 1525 1528 1530 1533 1536 1538 1541 1544 1546 1548 1550 1552 1553 1554 1556 1557 1559 1561 1563 1565 1566 1568 1570 1571 1572 1574 1575 1576 1577 1578 1580 1581 1582 1582 1584 1585 1585 1586 1587 1587 1587 1588 1588 1588 1589 1590 1590 1590 1590 1591 1592 1592 1592 1593 1594 1595 1595 1595 1595 1596 1597 1597 1597 1597 1598 1599 1599 1600 1600 1600
1481 1485 1489 1492 1494 1495 1497 1500 1502 1505 1508 1512 1515 1517 1520 1522 1525 1528 1530 1533 1536 1538 1541 1543 1545 1547 1549 1551 1552 1554 1555 1557 1560 1562 1564 1565 1567 1568 1569 1571 1572 1573 1575 1576 1577 1578 1579 1580 1581 1582 1583 1584 1585 1586 1586 1587 1587 1587 1588 1588 1589 1589 1589 1590 1591 1591 1591 1592 1593 1594 1594 1595 1595 1595 1596 1596 1596 1596 1597 1598 1598 1599 1599 1599 1599
1474 1478 1482 1486 1489 1491 1493 1495 1499 1502 1506 1508 1511 1514 1517 1520 1522 1525 1528 1530 1533 1536 1538 1540 1542 1544 1546 1548 1550 1552 1554 1557 1559 1561 1562 1564 1565 1566 1568 1569 1570 1571 1573 1574 1576 1577 1578 1579 1580 1581 1582 1583 1584 1585 1586 1586 1586 1587 1587 1588 1588 1588 1589 1590 1590 1591 1591 1592 1592 1593 1594 1594 1594 1595 1595 1596 1596 1595 1596 1597 1598 1598 1599 1599 1599
1471 1473 1476 1479 1483 1486 1490 1493 1497 1500 1502 1506 1509 1512 1515 1517 1520 1522 1525 1527 1530 1532 1535 1537 1539 1542 1544 1545 1547 1549 1552 1554 1557 1559 1561 1562 1563 1564 1566 1567 1568 1570 1571 1573 1574 1575 1577 1578 1579 1580 1581 1582 1583 1584 1585 1585 1586 1586 1587 1587 1588 1588 1588 1589 1590 1590 1591 1591 1592 1593 1593 1594 1594 1594 1595 1595 1595 1595 1595 1596 1597 1597 1597 1598 1598
1468 1470 1472 1475 1479 1484 1489 1492 1495 1497 1500 1503 1506 1509 1512 1515 1517 1519 1521 1524 1527 1529 1532 1534 1536 1539 1541 1543 1545 1547 1549 1551 1554 1556 1558 1559 1560 1562 1563 1565 1566 1568 1569 1571 1573 1574 1575 1577 1578 1579 1580 1581 1583 1583 1584 1585 1585 1586 1586 1587 1587 1588 1588 1588 1589 1590 1590 1591 1591 1592 1592 1593 1593 1594 1595 1595 1595 1595 1595 1596 1597 1597 1597 1598 1598
1463 1467 1470 1473 1479 1482 1486 1489 1492 1495 1497 1500 1502 1505 1509 1511 1514 1517 1519 1521 1524 1526 1529 1531 1533 1536 1538 1540 1542 1544 1547 1548 1550 1552 1555 1556 1558 1560 1561 1563 1565 1566 1568 1569 1571 1572 1574 1575 1577 1578 1579 1580 1581 1582 1583 1584 1584 1585 1586 1586 1586 1587 1587 1588 1588 1588 1589 1590 1590 1591 1591 1592 1593 1594 1595 1595 1595 1595 1595 1596 1596 1597 1597 1598 1598
1459 1463 1466 1470 1474 1477 1481 1484 1488 1491 1493 1495 1499 1501 1504 1508 1511 1513 1516 1518 1520 1523 1526 1528 1530 1532 1535 1537 1540 1542 1544 1546 1548 1550 1552 1554 1556 1558 1559 1561 1563 1564 1566 1567 1569 1571 1572 1574 1575 1576 1577 1579 1580 1581 1582 1583 1583 1584 1584 1585 1586 1586 1587 1587 1587 1588 1588 1589 1589 1590 1591 1591 1592 1593 1594 1594 1595 1595 1595 1596 1596 1596 1597 1597 1597
1456 1459 1462 1465 1468 1472 1475 1479 1483 1485 1488 1491 1494 1497 1500 1504 1507 1509 1512 1515 1517 1519 1522 1525 1527 1529 1532 1534 1537 1540 1541 1544 1546 1548 1550 1552 1554 1556 1557 1559 1561 1562 1564 1565 1567 1569 1571 1572 1574 1575 1576 1577 1579 1580 1581 1582 1582 1583 1583 1584 1585 1585 1586 1586 1587 1587 1587 1588 1589 1589 1590 1591 1591 1592 1593 1593 1594 1594 1595 1595 1595 1595 1596 1597 1597
1453 1455 1458 1460 1462 1467 1471 1474 1477 1480 1484 1487 1490 1493 1496 1499 1502 1505 1508 1511 1513 1516 1518 1521 1524 1526 1529 1532 1534 1537 1539 1541 1543 1545 1548 1550 1552 1554 1556 1557 1559 1561 1563 1564 1566 1568 1569 1571 1572 1574 1575 1576 1577 1579 1580 1581 1581 1582 1583 1583 1584 1585 1585 1586 1586 1586 1586 1587 1587 1588 1589 1589 1590 1591 1592 1592 1593 1593 1594 1595 1595 1595 1595 1595 1595
1449 1452 1454 1457 1459 1463 1467 1470 1473 1476 1479 1483 1486 1489 1491 1494 1498 1501 1504 1507 1510 1512 1515 1517 1520 1523 1526 1529 1531 1534 1536 1539 1541 1543 1545 1548 1550 1552 1554 1556 1557 1559 1561 1563 1565 1567 1568 1569 1571 1572 1573 1575 1576 1577 1578 1579 1580 1581 1582 1582 1583 1583 1584 1585 1585 1586 1586 1586 1586 1587 1587 1588 1589 1590 1590 1591 1592 1593 1593 1594 1594 1594 1594 1594 1594
1444 1446 1449 1453 1456 1460 1463 1466 1469 1472 1475 1478 1481 1484 1486 1490 1493 1497 1501 1504 1506 1509 1511 1514 1517 1520 1523 1526 1529 1531 1534 1536 1538 1541 1543 1546 1548 1550 1552 1554 1556 1558 1560 1562 1564 1565 1567 1568 1569 1571 1572 1573 1575 1576 1577 1578 1579 1579 1580 1581 1581 1582 1583 1583 1584 1585 1585 1585 1586 1586 1586 1587 1588 1588 1589 1590 1591 1592 1592 1592 1592 1592 1593 1593 1593
1438 1441 1445 1449 1452 1455 1459 1462 1465 1468 1471 1474 1477 1480 1483 1486 1489 1493 1496 1499 1502 1505 1508 1511 1514 1517 1520 1523 1526 1528 1531 1533 1536 1538 1541 1543 1546 1548 1550 1552 1554 1556 1558 1560 1562 1563 1565 1566 1568 1569 1570 1572 1573 1574 1575 1576 1577 1577 1578 1579 1580 1581 1581 1581 1582 1583 1584 1585 1585 1585 1585 1586 1587 1587 1587 1588 1589 1590 1590 1590 1591 1591 1591 1591 1591
1434 1438 1442 1446 1449 1452 1454 1458 1461 1465 1468 1470 1474 1477 1481 1484 1487 1490 1493 1496 1500 1503 1506 1509 1512 1514 1517 1520 1523 1525 1528 1531 1533 1536 1539 1541 1543 1545 1547 1549 1551 1553 1555 1557 1559 1561 1563 1564 1566 1567 1568 1570 1571 1572 1573 1574 1575 1576 1576 1577 1578 1579 1579 1579 1580 1581 1582 1583 1583 1583 1584 1584 1585 1586 1586 1586 1587 1588 1588 1588 1589 1589 1589 1589 1589
1431 1435 1439 1442 1445 1448 1451 1454 1457 1461 1465 1468 1473 1476 1479 1482 1485 1487 1491 1494 1498 1501 1504 1507 1509 1511 1514 1517 1520 1523 1525 1528 1531 1534 1536 1537 1540 1542 1544 1546 1549 1551 1553 1555 1557 1559 1560 1562 1563 1565 1566 1568 1569 1570 1571 1572 1573 1573 1574 1575 1576 1576 1577 1577 1578 1579 1580 1581 1581 1582 1582 1582 1583 1584 1585 1585 1585 1586 1586 1586 1587 1587 1587 1587 1588
1428 1431 1435 1438 1441 1445 1448 1452 1455 1458 1462 1466 1470 1473 1476 1479 1482 1484 1488 1491 1495 1498 1501 1503 1506 1509 1511 1514 1516 1519 1522 1525 1528 1531 1533 1535 1537 1539 1541 1544 1546 1548 1550 1552 1554 1556 1558 1560 1561 1562 1564 1565 1566 1567 1568 1569 1570 1571 1572 1573 1573 1574 1575 1575 1576 1577 1577 1578 1579 1579 1580 1581 1582 1582 1583 1583 1584 1584 1584 1584 1584 1584 1585 1585 1585
1423 1427 1431 1435 1438 1442 1446 1451 1454 1457 1460 1463 1467 1470 1473 1476 1479 1482 1485 1488 1491 1494 1497 1500 1503 1506 1508 1510 1513 1516 1519 1522 1525 1527 1529 1532 1534 1536 1538 1541 1543 1545 1547 1550 1552 1554 1556 1557 1559 1560 1561 1562 1563 1564 1566 1567 1567 1568 1569 1570 1571 1571 1572 1573 1574 1574 1575 1575 1576 1577 1578 1579 1579 1580 1580 1581 1581 1582 1582 1582 1582 1582 1582 1583 1583
1418 1423 1428 1431 1435 1439 1444 1448 1451 1454 1457 1461 1464 1467 1470 1472 1475 1479 1482 1484 1487 1491 1494 1497 1500 1502 1505 1508 1511 1513 1516 1518 1521 1523 1526 1529 1531 1533 1536 1538 1540 1542 1545 1547 1549 1551 1553 1554 1556 1557 1558 1559 1560 1561 1563 1564 1564 1566 1567 1568 1569 1569 1569 1570 1571 1571 1572 1573 1573 1574 1575 1576 1577 1577 1577 1578 1579 1579 1579 1579 1579 1580 1580 1580 1581
1415 1420 1424 1428 1432 1437 1441 1445 1448 1451 1454 1458 1461 1464 1467 1470 1473 1476 1478 1481 1484 1487 1491 1494 1497 1499 1502 1505 1507 1510 1512 1514 1517 1519 1522 1525 1528 1531 1533 1535 1537 1539 1541 1544 1546 1548 1550 1551 1552 1554 1554 1556 1557 1558 1559 1560 1562 1563 1564 1565 1566 1567 1567 1567 1568 1568 1569 1570 1570 1571 1571 1573 1574 1574 1575 1576 1576 1577 1577 1577 1577 1578 1578 1578 1578
1413 1418 1422 1426 1431 1435 1438 1441 1444 1447 1450 1453 1457 1461 1464 1467 1470 1473 1476 1479 1482 1485 1488 1491 1493 1496 1499 1501 1503 1506 1508 1510 1513 1516 1519 1522 1525 1528 1530 1532 1534 1536 1538 1540 1542 1544 1546 1547 1548 1550 1551 1552 1553 1555 1556 1557 1558 1560 1561 1562 1563 1564 1564 1565 1565 1566 1566 1567 1567 1568 1569 1570 1571 1571 1572 1573 1574 1574 1575 1575 1575 1575 1576 1576 1576
1411 1415 1420 1425 1429 1431 1434 1437 1441 1444 1447 1450 1454 1458 1462 1465 1468 1471 1473 1476 1479 1482 1485 1487 1490 1492 1495 1497 1499 1501 1504 1506 1509 1512 1515 1518 1521 1524 1526 1529 1531 1533 1535 1537 1539 1540 1542 1543 1544 1546 1547 1548 1550 1552 1553 1554 1555 1556 1558 1559 1560 1560 1561 1562 1562 1563 1563 1564 1564 1565 1566 1567 1568 1568 1569 1570 1571 1571 1572 1572 1572 1573 1573 1573 1573
1408 1412 1417 1422 1425 1428 1431 1434 1437 1440 1444 1448 1451 1455 1459 1462 1465 1468 1471 1473 1476 1479 1481 1484 1486 1488 1491 1493 1495 1497 1500 1503 1506 1509 1512 1515 1517 1520 1522 1525 1527 1529 1531 1533 1534 1536 1538 1539 1541 1542 1544 1545 1547 1548 1549 1551 1552 1553 1554 1555 1556 1557 1558 1558 1559 1559 1560 1561 1561 1562 1564 1565 1565 1566 1566 1567 1568 1569 1569 1569 1569 1570 1571 1570 1569
1406 1410 1414 1418 1421 1424 1427 1431 1434 1438 1442 1446 1449 1453 1456 1459 1462 1464 1467 1470 1472 1475 1477 1480 1483 1485 1487 1489 1491 1494 1497 1499 1502 1505 1508 1511 1513 1516 1519 1521 1524 1526 1527 1529 1530 1532 1534 1536 1537 1539 1540 1542 1543 1544 1546 1547 1548 1549 1550 1551 1552 1553 1553 1555 1555 1556 1557 1557 1558 1559 1561 1561 1562 1563 1563 1564 1565 1566 1567 1566 1567 1567 1567 1567 1567
1404 1408 1411 1414 1417 1420 1424 1429 1432 1436 1440 1443 1447 1451 1454 1457 1459 1461 1464 1466 1469 1472 1474 1477 1479 1481 1483 1485 1489 1491 1494 1496 1499 1502 1504 1507 1510 1513 1515 1518 1520 1521 1523 1525 1527 1529 1531 1532 1533 1535 1537 1538 1539 1540 1541 1543 1544 1546 1547 1547 1548 1549 1549 1550 1551 1552 1553 1554 1555 1556 1557 1558 1559 1559 1560 1561 1562 1563 1563 1563 1563 1564 1563 1563 1563
1401 1404 1407 1410 1413 1417 1421 1426 1430 1434 1438 1441 1444 1447 1450 1453 1456 1458 1461 1463 1466 1468 1471 1473 1475 1477 1479 1483 1486 1489 1491 1493 1496 1498 1501 1503 1506 1509 1512 1514 1516 1518 1520 1522 1524 1526 1527 1528 1529 1531 1533 1534 1535 1536 1537 1539 1540 1542 1543 1544 1545 1545 1546 1546 1547 1548 1549 1550 1552 1553 1553 1555 1556 1556 1557 1558 1558 1559 1559 1559 1559 1559 1559 1559 1559
1399 1402 1405 1408 1412 1416 1420 1424 1428 1431 1434 1438 1441 1444 1447 1450 1453 1455 1458 1461 1463 1466 1468 1470 1472 1474 1478 1481 1483 1485 1488 1489 1492 1494 1497 1500 1502 1505 1508 1510 1512 1514 1516 1518 1520 1521 1522 1524 1525 1527 1528 1529 1530 1531 1533 1535 1536 1538 1539 1541 1541 1542 1543 1543 1544 1545 1546 1547 1548 1549 1550 1551 1552 1552 1553 1554 1554 1554 1554 1554 1555 1555 1555 1555 1555
1397 1401 1404 1408 1411 1415 1418 1421 1425 1428 1432 1435 1439 1442 1445 1448 1450 1454 1457 1460 1462 1464 1466 1468 1471 1473 1476 1478 1480 1482 1484 1486 1488 1491 1493 1496 1499 1502 1504 1506 1508 1510 1512 1514 1515 1517 1518 1520 1522 1523 1524 1525 1526 1528 1529 1531 1533 1534 1536 1537 1538 1539 1539 1540 1541 1541 1542 1543 1544 1545 1546 1547 1547 1548 1549 1549 1550 1550 1550 1550 1550 1550 1551 1551 1551
1394 1399 1403 1407 1410 1413 1416 1419 1423 1426 1430 1433 1436 1439 1442 1445 1449 1452 1456 1459 1461 1462 1464 1466 1469 1471 1473 1474 1477 1479 1481 1483 1485 1488 1491 1494 1496 1498 1500 1502 1504 1506 1509 1510 1511 1513 1514 1516 1517 1518 1519 1521 1522 1524 1526 1527 1529 1530 1533 1534 1535 1536 1536 1537 1537 1538 1539 1540 1540 1541 1542 1542 1543 1543 1544 1545 1545 1546 1546 1546 1546 1546 1546 1546 1546
1395 1399 1403 1407 1410 1413 1416 1419 1423 1426 1429 1433 1436 1438 1441 1444 1448 1451 1453 1456 1458 1460 1461 1463 1465 1467 1469 1471 1473 1475 1477 1480 1483 1485 1488 1490 1492 1494 1496 1498 1501 1503 1505 1506 1507 1509 1510 1512 1513 1514 1516 1517 1518 1520 1522 1524 1525 1527 1529 1531 1532 1533 1533 1534 1534 1535 1536 1536 1536 1537 1537 1538 1539 1540 1540 1541 1541 1542 1542 1542 1542 1542 1541 1541 1540
1398 1402 1406 1409 1411 1414 1417 1420 1424 1428 1431 1434 1436 1438 1441 1444 1446 1449 1451 1453 1455 1457 1458 1460 1462 1464 1466 1468 1470 1472 1475 1477 1480 1482 1484 1486 1488 1490 1492 1495 1497 1499 1500 1502 1503 1505 1506 1507 1509 1511 1512 1513 1514 1516 1518 1520 1522 1524 1526 1528 1530 1530 1530 1531 1531 1532 1532 1532 1533 1533 1534 1534 1535 1536 1537 1537 1538 1539 1539 1538 1538 1537 1536 1535 1534
1402 1405 1408 1412 1414 1417 1420 1423 1426 1429 1432 1434 1436 1438 1440 1442 1444 1447 1449 1451 1453 1454 1456 1457 1458 1460 1463 1465 1467 1470 1472 1475 1477 1479 1480 1482 1484 1486 1488 1491 1493 1495 1497 1499 1500 1501 1502 1504 1505 1507 1508 1509 1510 1513 1514 1516 1518 1521 1523 1526 1527 1527 1527 1527 1527 1528 1528 1528 1529 1530 1530 1531 1531 1532 1533 1533 1534 1535 1534 1533 1532 1531 1531 1529 1527
1404 1407 1410 1413 1416 1419 1422 1425 1427 1430 1432 1434 1435 1437 1439 1441 1443 1445 1446 1448 1450 1451 1453 1454 1455 1457 1460 1462 1465 1467 1469 1472 1474 1475 1476 1478 1480 1482 1485 1487 1490 1491 1493 1494 1496 1497 1499 1500 1502 1503 1504 1505 1507 1509 1511 1513 1516 1518 1521 1522 1523 1523 1524 1523 1524 1524 1525 1525 1525 1526 1527 1527 1527 1528 1529 1529 1530 1531 1530 1528 1527 1526 1525 1523 1520
1405 1408 1411 1414 1417 1420 1423 1426 1427 1429 1432 1433 1435 1436 1438 1439 1441 1442 1444 1446 1447 1448 1450 1451 1452 1455 1457 1459 1462 1464 1466 1468 1470 1471 1473 1475 1477 1479 1481 1484 1486 1487 1489 1490 1492 1494 1496 1497 1498 1500 1500 1502 1503 1506 1508 1511 1513 1516 1518 1519 1519 1520 1519 1519 1519 1520 1521 1521 1522 1522 1524 1524 1523 1524 1525 1525 1526 1526 1525 1524 1523 1522 1520 1515 1513
1407 1409 1412 1415 1418 1421 1423 1425 1427 1429 1431 1432 1434 1435 1437 1438 1439 1441 1442 1443 1443 1445 1447 1449 1450 1452 1454 1456 1458 1460 1462 1465 1466 1468 1470 1472 1474 1476 1478 1480 1482 1483 1485 1487 1489 1491 1492 1493 1495 1496 1498 1499 1501 1503 1505 1507 1509 1512 1513 1515 1516 1516 1515 1515 1516 1516 1517 1517 1518 1519 1519 1519 1519 1520 1521 1521 1522 1522 1520 1519 1519 1519 1514 1508 1508
1408 1411 1413 1415 1418 1421 1423 1424 1426 1428 1430 1431 1432 1433 1435 1436 1438 1439 1440 1441 1442 1443 1445 1447 1448 1449 1451 1452 1454 1455 1457 1460 1463 1465 1467 1469 1471 1473 1475 1477 1478 1480 1482 1484 1486 1487 1488 1489 1491 1493 1494 1496 1498 1500 1502 1503 1505 1507 1509 1510 1511 1511 1510 1511 1512 1512 1513 1513 1514 1515 1515 1515 1516 1516 1516 1517 1517 1516 1516 1515 1515 1513 1508 1505 1508
1410 1412 1414 1416 1418 1420 1422 1424 1426 1427 1429 1430 1431 1432 1433 1435 1436 1437 1439 1439 1441 1442 1443 1444 1445 1447 1448 1449 1451 1452 1453 1455 1458 1462 1464 1466 1468 1470 1471 1473 1475 1477 1479 1480 1482 1483 1484 1485 1487 1489 1490 1492 1494 1496 1498 1500 1502 1503 1504 1506 1506 1506 1506 1508 1508 1508 1508 1509 1510 1511 1511 1512 1512 1512 1512 1512 1512 1511 1511 1510 1509 1506 1504 1504 1507
1411 1413 1415 1417 1418 1420 1421 1423 1425 1427 1428 1429 1430 1431 1432 1433 1434 1435 1436 1437 1438 1440 1440 1442 1443 1444 1445 1446 1448 1449 1451 1453 1455 1458 1460 1462 1464 1467 1468 1470 1472 1474 1475 1477 1478 1480 1481 1482 1484 1486 1487 1488 1491 1493 1494 1496 1497 1499 1500 1502 1502 1502 1504 1505 1504 1503 1504 1505 1506 1506 1506 1507 1508 1508 1508 1508 1508 1507 1507 1505 1503 1502 1502 1502 1503
1413 1415 1417 1418 1419 1421 1422 1424 1426 1427 1427 1428 1429 1430 1431 1432 1433 1434 1434 1435 1436 1437 1438 1439 1440 1441 1442 1444 1445 1446 1448 1450 1452 1454 1456 1459 1461 1464 1465 1467 1469 1471 1472 1473 1475 1477 1478 1479 1481 1482 1484 1486 1488 1490 1491 1492 1494 1495 1497 1498 1498 1499 1501 1502 1500 1499 1500 1501 1502 1502 1502 1503 1503 1503 1503 1503 1503 1503 1502 1500 1499 1499 1499 1499 1498
1415 1417 1419 1420 1422 1423 1424 1425 1426 1427 1427 1428 1428 1429 1429 1430 1431 1431 1432 1433 1434 1434 1436 1437 1437 1439 1440 1441 1443 1444 1446 1447 1449 1451 1453 1455 1458 1460 1462 1464 1466 1467 1469 1470 1471 1473 1475 1476 1478 1479 1481 1483 1485 1486 1488 1488 1490 1491 1493 1494 1495 1496 1498 1498 1497 1497 1497 1498 1498 1498 1498 1498 1499 1499 1499 1499 1499 1499 1498 1497 1496 1496 1495 1495 1494
1416 1418 1419 1420 1422 1422 1424 1425 1425 1426 1427 1427 1427 1428 1428 1429 1429 1429 1430 1431 1432 1432 1433 1434 1435 1436 1438 1439 1441 1442 1444 1445 1446 1448 1450 1452 1455 1457 1459 1461 1463 1464 1465 1467 1469 1471 1472 1473 1475 1476 1478 1480 1482 1484 1484 1485 1486 1488 1489 1490 1492 1493 1494 1494 1494 1494 1495 1495 1494 1495 1495 1495 1496 1496 1496 1495 1495 1494 1494 1494 1493 1493 1492 1491 1489
1415 1416 1418 1419 1420 1421 1422 1424 1424 1426 1426 1426 1427 1427 1428 1428 1428 1428 1429 1429 1429 1430 1431 1432 1433 1434 1435 1437 1438 1440 1441 1443 1444 1446 1448 1450 1452 1454 1456 1458 1460 1461 1462 1464 1466 1468 1469 1471 1472 1473 1476 1478 1480 1480 1480 1481 1482 1484 1486 1487 1488 1489 1490 1491 1490 1491 1492 1492 1492 1492 1492 1492 1492 1492 1492 1491 1491 1491 1491 1490 1490 1489 1488 1486 1485
1414 1415 1417 1419 1420 1421 1423 1424 1425 1425 1426 1426 1427 1427 1427 1428 1428 1427 1428 1428 1428 1428 1429 1430 1431 1432 1433 1434 1436 1437 1439 1441 1442 1444 1447 1449 1450 1452 1454 1455 1457 1458 1460 1462 1464 1465 1467 1468 1470 1471 1473 1475 1476 1476 1477 1477 1479 1481 1482 1484 1485 1486 1487 1487 1487 1488 1489 1489 1489 1488 1488 1488 1488 1488 1488 1488 1487 1487 1486 1486 1485 1484 1483 1481 1480
1417 1418 1419 1420 1421 1423 1424 1424 1425 1426 1426 1426 1426 1426 1427 1427 1427 1427 1427 1427 1427 1427 1427 1427 1429 1430 1431 1432 1433 1435 1437 1438 1440 1443 1445 1447 1448 1450 1452 1453 1455 1457 1458 1460 1462 1463 1465 1466 1467 1469 1471 1472 1472 1473 1474 1475 1477 1478 1479 1481 1482 1482 1483 1484 1485 1486 1486 1486 1486 1485 1485 1485 1484 1484 1484 1483 1483 1482 1482 1481 1480 1479 1478 1476 1475
1420 1420 1421 1422 1423 1425 1425 1426 1426 1426 1427 1427 1426 1426 1426 1425 1425 1426 1425 1426 1426 1426 1425 1426 1427 1428 1429 1430 1431 1433 1434 1436 1438 1440 1442 1444 1446 1448 1450 1452 1454 1456 1457 1459 1460 1461 1462 1463 1465 1466 1468 1468 1469 1471 1472 1473 1474 1475 1477 1478 1479 1480 1481 1481 1482 1482 1482 1483 1483 1482 1482 1481 1481 1480 1480 1480 1479 1479 1478 1477 1476 1475 1473 1471 1469
1421 1421 1422 1424 1425 1426 1426 1426 1427 1427 1427 1427 1427 1426 1425 1424 1424 1424 1424 1425 1425 1425 1425 1425 1425 1426 1427 1428 1429 1431 1432 1434 1436 1438 1440 1442 1444 1446 1448 1450 1452 1454 1456 1457 1458 1459 1460 1461 1462 1464 1465 1466 1467 1468 1469 1471 1472 1473 1474 1475 1476 1477 1478 1478 1479 1479 1479 1479 1479 1479 1479 1478 1478 1477 1477 1476 1475 1474 1473 1472 1472 1470 1469 1467 1464
1421 1422 1423 1426 1426 1426 1426 1426 1427 1427 1428 1427 1427 1426 1425 1424 1423 1423 1424 1424 1424 1424 1425 1425 1425 1426 1427 1427 1428 1429 1431 1433 1435 1437 1438 1440 1442 1444 1447 1448 1450 1452 1454 1455 1456 1457 1458 1459 1460 1461 1462 1464 1465 1466 1467 1468 1470 1471 1472 1472 1473 1474 1474 1475 1475 1476 1476 1476 1476 1475 1475 1474 1474 1473 1473 1472 1471 1470 1469 1468 1466 1465 1464 1462 1460